Weather History for KNKT - October, 2012

Change the Weather History Date:

Saturday, October 27, 2012

  Actual Average Record
Temperature  
Mean Temperature 68 °F -  
Max Temperature 71 °F 69 °F 82 °F (2010)
Min Temperature 64 °F 48 °F 39 °F (2013)
Cooling Degree Days 2    
Growing Degree Days 18 (Base 50)    
Moisture  
Dew Point 62 °F    
Average Humidity 86    
Maximum Humidity 94    
Minimum Humidity 75    
Precipitation  
Precipitation 1.39 in - - ()
Sea Level Pressure  
Sea Level Pressure 29.60 in    
Wind  
Wind Speed 20 mph ()    
Max Wind Speed 29 mph    
Max Gust Speed 43 mph    
Visibility 5.7 miles    
Events Rain    
Averages and records for this station are not official NWS values.
T = Trace of Precipitation, MM = Missing Value Source: Averaged Metar Reports

Daily Weather History Graph

Daily Weather History Graph

Search for Another Location

Airport or City:

Trip Planner

Search our weather history database for the weather conditions in past years. The results will help you decide how hot, cold, wet, or windy it might be!

Date:

Astronomy

Oct. 27, 2012 Rise Set
Actual Time 7:24 AM EDT 6:17 PM EDT
Civil Twilight 6:58 AM EDT 6:43 PM EDT
Nautical Twilight 6:28 AM EDT 7:13 PM EDT
Astronomical Twilight 5:59 AM EDT 7:42 PM EDT
Moon 5:00 PM EDT (10/27) 5:20 AM EDT (10/27)
Length of Visible Light 11h 45m
Length of Day
10h 53m
Waxing Gibbous, 96% of the Moon is Illuminated
Oct 27
Waxing Gibbous
Oct 29
Full
Nov 6
Last Quarter
Nov 13
New
Nov 20
First Quarter

Hourly Weather History & Observations

Time (EDT) Temp. Dew Point Humidity Pressure Visibility Wind Dir Wind Speed Gust Speed Precip Events Conditions
12:54 AM 70.0 °F 63.0 °F 78% 29.81 in 10.0 mi NE 17.3 mph 25.3 mph N/A   Clear
1:54 AM 71.1 °F 63.0 °F 75% 29.78 in 10.0 mi NE 15.0 mph - N/A   Clear
2:54 AM 70.0 °F 63.0 °F 78% 29.75 in 10.0 mi NE 17.3 mph 27.6 mph 0.00 in   Mostly Cloudy
3:54 AM 70.0 °F 63.0 °F 78% 29.72 in 10.0 mi NE 19.6 mph - 0.01 in   Overcast
4:54 AM 70.0 °F 62.1 °F 76% 29.70 in 10.0 mi NNE 21.9 mph 27.6 mph N/A   Overcast
5:54 AM 69.1 °F 62.1 °F 78% 29.68 in 10.0 mi NNE 18.4 mph - N/A   Partly Cloudy
6:54 AM 69.1 °F 62.1 °F 78% 29.68 in 10.0 mi NNE 23.0 mph 32.2 mph N/A   Mostly Cloudy
7:54 AM 69.1 °F 62.1 °F 78% 29.68 in 10.0 mi NNE 19.6 mph - N/A   Mostly Cloudy
8:54 AM 68.0 °F 63.0 °F 84% 29.68 in 7.0 mi NNE 23.0 mph - 0.00 in Rain Light Rain
9:13 AM 68.0 °F 62.6 °F 83% 29.68 in 7.0 mi NNE 20.7 mph 29.9 mph 0.01 in Rain Light Rain
9:35 AM 68.0 °F 64.4 °F 88% 29.68 in 7.0 mi NNE 21.9 mph 28.8 mph 0.02 in Rain Light Rain
9:46 AM 68.0 °F 64.4 °F 88% 29.68 in 7.0 mi NNE 21.9 mph 32.2 mph 0.02 in Rain Light Rain
9:54 AM 68.0 °F 64.0 °F 87% 29.67 in 8.0 mi NNE 20.7 mph 34.5 mph 0.03 in Rain Light Rain
10:54 AM 68.0 °F 64.0 °F 87% 29.67 in 5.0 mi NNE 23.0 mph 29.9 mph 0.03 in Rain Light Rain
11:54 AM 68.0 °F 64.0 °F 87% 29.65 in 4.0 mi NNE 20.7 mph 26.5 mph 0.04 in Rain Light Rain
12:54 PM 66.9 °F 64.0 °F 90% 29.61 in 5.0 mi NNE 19.6 mph 29.9 mph 0.10 in Rain Light Rain
1:02 PM 66.2 °F 64.4 °F 94% 29.62 in 5.0 mi NNE 20.7 mph 32.2 mph 0.01 in Rain Light Rain
1:54 PM 68.0 °F 63.0 °F 84% 29.59 in 4.0 mi NNE 25.3 mph 34.5 mph 0.05 in Rain Light Rain
2:24 PM 66.2 °F 62.6 °F 88% 29.59 in 2.5 mi NNE 25.3 mph 33.4 mph 0.06 in Rain Rain
2:32 PM 66.2 °F 64.4 °F 94% 29.58 in 3.0 mi NNE 23.0 mph 31.1 mph 0.08 in Rain Rain
2:45 PM 66.2 °F 62.6 °F 88% 29.58 in 4.0 mi NNE 26.5 mph 41.4 mph 0.10 in Rain Rain
2:54 PM 66.9 °F 63.0 °F 87% 29.57 in 3.0 mi NNE 27.6 mph 35.7 mph 0.12 in Rain Rain
3:54 PM 66.9 °F 63.0 °F 87% 29.55 in 4.0 mi NNE 23.0 mph 33.4 mph 0.12 in Rain Light Rain
4:04 PM 66.2 °F 62.6 °F 88% 29.56 in 5.0 mi NNE 24.2 mph 40.3 mph 0.02 in Rain Light Rain
4:16 PM 66.2 °F 62.6 °F 88% 29.55 in 6.0 mi NNE 26.5 mph 36.8 mph 0.03 in Rain Light Rain
4:25 PM 66.2 °F 62.6 °F 88% 29.55 in 5.0 mi NNE 20.7 mph 38.0 mph 0.04 in Rain Light Rain
4:35 PM 66.2 °F 62.6 °F 88% 29.55 in 5.0 mi NNE 25.3 mph 34.5 mph 0.05 in Rain Light Rain
4:54 PM 66.0 °F 63.0 °F 90% 29.55 in 3.0 mi NNE 25.3 mph 34.5 mph 0.10 in Rain Rain
5:10 PM 66.2 °F 62.6 °F 88% 29.56 in 4.0 mi NNE 25.3 mph 35.7 mph 0.04 in Rain Rain
5:54 PM 66.0 °F 63.0 °F 90% 29.54 in 2.5 mi NNE 24.2 mph 34.5 mph 0.15 in Rain Rain
6:06 PM 66.2 °F 62.6 °F 88% 29.55 in 4.0 mi NNE 23.0 mph 35.7 mph 0.03 in Rain Rain
6:29 PM 66.2 °F 62.6 °F 88% 29.55 in 3.0 mi NNE 24.2 mph 38.0 mph 0.12 in Rain Heavy Rain
6:38 PM 66.2 °F 62.6 °F 88% 29.56 in 3.0 mi NNE 28.8 mph 35.7 mph 0.15 in Rain Rain
6:54 PM 64.9 °F 61.0 °F 87% 29.54 in 4.0 mi NNE 27.6 mph 40.3 mph 0.19 in Rain Rain
7:03 PM 64.4 °F 60.8 °F 88% 29.55 in 4.0 mi NNE 24.2 mph 38.0 mph 0.03 in Rain Rain
7:21 PM 64.4 °F 60.8 °F 88% 29.54 in 2.5 mi NNE 26.5 mph 42.6 mph 0.11 in Rain Heavy Rain
7:30 PM 64.4 °F 60.8 °F 88% 29.54 in 2.5 mi NNE 26.5 mph 40.3 mph 0.14 in Rain Rain
7:37 PM 64.4 °F 60.8 °F 88% 29.54 in 3.0 mi NNE 27.6 mph 40.3 mph 0.16 in Rain Rain
7:54 PM 64.9 °F 61.0 °F 87% 29.53 in 4.0 mi North 27.6 mph 42.6 mph 0.20 in Rain Rain
8:54 PM 64.0 °F 61.0 °F 90% 29.52 in 6.0 mi North 24.2 mph 36.8 mph 0.10 in Rain Light Rain
9:27 PM 64.4 °F 60.8 °F 88% 29.54 in 7.0 mi NNE 27.6 mph 38.0 mph 0.02 in Rain Light Rain
9:54 PM 64.9 °F 61.0 °F 87% 29.52 in 5.0 mi NNE 27.6 mph 39.1 mph 0.03 in Rain Light Rain
10:26 PM 64.4 °F 60.8 °F 88% 29.53 in 6.0 mi NNE 21.9 mph 36.8 mph 0.06 in Rain Light Rain
10:54 PM 64.0 °F 60.1 °F 87% 29.52 in 9.0 mi NNE 20.7 mph 35.7 mph 0.08 in Rain Light Rain
11:25 PM 64.4 °F 60.8 °F 88% 29.53 in 7.0 mi NNE 23.0 mph 36.8 mph 0.02 in Rain Light Rain
11:42 PM - - N/A% - 6.0 mi NNE 25.3 mph 34.5 mph 0.03 in Rain Light Rain
11:54 PM 64.0 °F 61.0 °F 90% 29.51 in 6.0 mi NNE 26.5 mph 36.8 mph 0.04 in Rain Light Rain